STARLINK-36719

Last updated on Thu Mar 05 2026 00:02:08 GMT+0000 (Coordinated Universal Time)

1 67648U 26022A 26063.07224097 .00217460 00000+0 14167-2 0 9991 2 67648 97.2828 96.7563 0002136 132.4128 227.7318 15.75276025 4664
UTC large
Height (km)
Speed (km/s)
/
Latitude / Longitude
Inclination (degrees)
Orbital Period (minutes)
Azimuth
Elevation
Range (km)
Doppler Factor

Next 0 passes for location: London (51.5072 / 0.1276)

Sorry there are no passes over London.